Sigfox identifier Datetime Temperature Humidity SNR
00388D50 2018-10-09 08:54:50 21.1 40 15.7
00388D50 2018-10-09 07:49:17 21.2 40 15.8
00388D50 2018-10-09 06:43:42 21.1 39 16.3
00388D50 2018-10-09 05:38:04 21.1 39 16.2
00388D50 2018-10-09 01:15:47 21.1 38 16.3
00388D50 2018-10-09 00:10:05 21.1 37 16.2
00388D50 2018-10-08 23:04:22 21.1 37 16.5
00388D50 2018-10-08 21:58:40 21.1 37 16.7
00388D50 2018-10-08 20:52:59 21.1 37 16.7
00388D50 2018-10-08 19:47:18 21.2 37 16.8
00388D50 2018-10-08 17:35:51 21.1 36 17.3
00388D50 2018-10-08 16:30:06 21 36 17.2
00388D50 2018-10-08 15:24:21 21 35 17.2
00388D50 2018-10-08 14:18:39 20.9 35 16.7
00388D50 2018-10-08 13:12:54 21 34 16.9
00388D50 2018-10-08 12:07:15 20.8 34 17
00388D50 2018-10-08 11:01:34 20.6 31 17
00388D50 2018-10-08 09:55:54 20.5 30 17
00388D50 2018-10-08 08:50:12 20.4 30 16.9
00388D50 2018-10-08 07:44:32 20.4 31 16.8
00388D50 2018-10-08 06:38:48 20.5 32 16.7
00388D50 2018-10-08 05:33:03 20.5 33 19.3
00388D50 2018-10-08 04:27:19 20.3 33 19.3
00388D50 2018-10-08 03:21:37 20.5 33 19.3
00388D50 2018-10-08 02:15:55 20.5 34 19.1
00388D50 2018-10-08 01:10:08 20.5 35 19.1
00388D50 2018-10-08 00:04:20 20.5 35 19.1
00388D50 2018-10-07 22:58:36 20.5 36 19.1
00388D50 2018-10-07 21:52:50 20.6 36 19.2
00388D50 2018-10-07 20:47:06 20.7 37 19.3
00388D50 2018-10-07 19:41:24 20.7 37 19.3
00388D50 2018-10-07 18:35:45 20.7 37 19.3
00388D50 2018-10-07 17:30:07 20.7 37 19.2
00388D50 2018-10-07 16:24:29 20.6 37 19.2
00388D50 2018-10-07 15:18:50 20.5 37 19.2
00388D50 2018-10-07 14:13:10 20.6 37 18.8
00388D50 2018-10-07 13:07:30 20.6 37 18.8
00388D50 2018-10-07 12:01:46 20.6 37 18.8
00388D50 2018-10-07 10:56:04 20.6 37 18.8
00388D50 2018-10-07 09:50:22 20.6 37 18.7
00388D50 2018-10-07 08:44:40 20.7 38 18.7
00388D50 2018-10-07 07:38:59 20.7 38 18.8
00388D50 2018-10-07 06:33:19 20.7 38 18.8
00388D50 2018-10-07 05:27:41 20.7 38 18.9
00388D50 2018-10-07 04:21:57 20.7 39 18.9
00388D50 2018-10-07 03:16:20 20.7 39 18.9
00388D50 2018-10-07 02:10:34 20.7 39 15.9
00388D50 2018-10-07 01:04:50 20.8 39 15.8
00388D50 2018-10-06 23:59:07 20.7 39 15.9
00388D50 2018-10-06 22:53:23 20.9 39 15.9
00388D50 2018-10-06 21:47:39 20.9 39 15.9
00388D50 2018-10-06 20:41:59 21 39 15.8
00388D50 2018-10-06 19:36:20 20.9 39 15.7
00388D50 2018-10-06 18:30:40 21 39 15.6
00388D50 2018-10-06 17:24:58 20.9 39 15.4
00388D50 2018-10-06 16:19:17 21 39 15.3
00388D50 2018-10-06 14:07:52 20.9 39 15.1
00388D50 2018-10-06 13:02:09 20.9 39 15.2
00388D50 2018-10-06 11:56:27 21 39 15
00388D50 2018-10-06 10:50:41 20.9 39 15.1
00388D50 2018-10-06 09:45:01 20.9 39 15.3
00388D50 2018-10-06 08:39:15 21 39 15.3
00388D50 2018-10-06 07:33:33 21 39 15.5
00388D50 2018-10-06 06:27:56 21 40 15.7
00388D50 2018-10-06 05:22:17 21 40 15.8
00388D50 2018-10-06 04:16:33 21.1 41 15.8
00388D50 2018-10-06 03:10:52 21.1 41 14.9
00388D50 2018-10-06 02:05:12 21.1 41 14.7
00388D50 2018-10-06 00:59:28 21.1 41 14.5
00388D50 2018-10-05 23:53:48 21.2 42 14.9
00388D50 2018-10-05 22:48:08 21.4 42 15
00388D50 2018-10-05 21:42:30 21.4 43 14.5
00388D50 2018-10-05 20:36:50 21.5 43 14
00388D50 2018-10-05 19:31:08 21.6 43 13.7
00388D50 2018-10-05 18:25:27 21.8 44 11.2
00388D50 2018-10-05 17:19:51 22 44 9.2
00388D50 2018-10-05 16:14:05 22.1 52 0